This is the latest recevied weather packets stored in our database for station/object KE0QIB. If no packets are shown the sender has not sent any weather packets the latest 10 day(s).
| Time | Temp. | Humidity | Pressure | Rain* | Wind** | Luminosity | Snow |
|---|---|---|---|---|---|---|---|
| 1777732622 | 18.33° C | 28% | 1000 hPa | 0 mm | - | - | - |
| 1777732322 | 17.78° C | 29% | 1000 hPa | 0 mm | - | - | - |
| 1777732022 | 17.78° C | 29% | 1000 hPa | 0 mm | - | - | - |
| 1777731722 | 17.22° C | 30% | 999.9 hPa | 0 mm | - | - | - |
| 1777731422 | 16.67° C | 30% | 999.9 hPa | 0 mm | - | - | - |
| 1777731122 | 16.11° C | 36% | 999.9 hPa | 0 mm | - | - | - |
| 1777730522 | 15.56° C | 36% | 1000.3 hPa | 0 mm | - | - | - |
| 1777730222 | 15° C | 34% | 1000.3 hPa | 0 mm | - | - | - |
| 1777729922 | 14.44° C | 37% | 1000.6 hPa | 0 mm | - | - | - |
| 1777729622 | 14.44° C | 38% | 1000.6 hPa | 0 mm | - | - | - |
| 1777729322 | 14.44° C | 36% | 1000.6 hPa | 0 mm | - | - | - |
| 1777729022 | 14.44° C | 38% | 1001 hPa | 0 mm | - | - | - |
| 1777728722 | 13.89° C | 37% | 1001 hPa | 0 mm | - | - | - |
| 1777728422 | 13.33° C | 37% | 1001 hPa | 0 mm | - | - | - |
| 1777728122 | 13.33° C | 36% | 1000.8 hPa | 0 mm | - | - | - |
| 1777727822 | 12.78° C | 37% | 1000.8 hPa | 0 mm | - | - | - |
| 1777727522 | 12.22° C | 39% | 1000.8 hPa | 0 mm | - | - | - |
| 1777727222 | 11.67° C | 41% | 1001.1 hPa | 0 mm | - | - | - |
| 1777726922 | 11.67° C | 39% | 1001.1 hPa | 0 mm | - | - | - |
| 1777726622 | 11.11° C | 40% | 1001.1 hPa | 0 mm | - | - | - |
| 1777726322 | 10.56° C | 41% | 1001.1 hPa | 0 mm | - | - | - |
| 1777726022 | 10.56° C | 41% | 1001.1 hPa | 0 mm | - | - | - |
| 1777725722 | 10° C | 40% | 1001.1 hPa | 0 mm | - | - | - |
| 1777725422 | 10° C | 42% | 1001.3 hPa | 0 mm | - | - | - |
| 1777725122 | 10° C | 41% | 1001.3 hPa | 0 mm | - | - | - |
* Rain latest hour (hover to see other rain measurements)
** Current wind speed in m/s (hover to see current wind gust speed)